Location: Newark
(6.1731°S, 35.7419°E)
Time: 17:11:32
(UTC+00:00)

A-11 Canister half - All Passes

Search period start: 19 February 2020 00:00
Search period end: 29 February 2020 00:00
Orbit: 1517 x 1683 km, 47.2° (Epoch: 18 February)

Date Brightness Start Highest point End Pass type
(mag) Time Alt. Az. Time Alt. Az. Time Alt. Az.
19 Feb - 02:03:06 10° WSW 02:08:25 16° SW 02:13:48 10° S visible
19 Feb - 08:34:29 10° S 08:40:17 16° SE 08:46:06 10° ESE daylight
19 Feb - 10:35:52 10° SW 10:46:02 77° SE 10:56:09 10° NE daylight
19 Feb - 12:43:30 10° W 12:50:52 23° NW 12:58:13 10° N daylight
19 Feb - 21:30:01 10° NNE 21:35:22 17° NE 21:40:42 10° E night (unlit)
19 Feb - 23:30:47 10° NW 23:40:02 88° SW 23:49:26 10° SE visible
20 Feb - 01:39:36 10° W 01:45:23 18° SW 01:51:18 10° S visible
20 Feb - 08:12:04 10° S 08:17:14 15° SE 08:22:23 10° ESE daylight
20 Feb - 10:12:58 10° SSW 10:23:05 71° SE 10:33:10 10° NE daylight
20 Feb - 12:20:08 10° WSW 12:27:55 25° NW 12:35:40 10° N daylight
20 Feb - 21:07:46 10° NNE 21:12:26 15° NE 21:17:05 10° E night (unlit)
20 Feb - 23:07:54 10° NW 23:17:10 85° NE 23:26:32 10° SE visible
21 Feb - 01:16:10 10° W 01:22:24 20° SW 01:28:44 10° S visible
21 Feb - 07:49:46 10° SSE 07:54:09 13° SE 07:58:33 10° ESE daylight
21 Feb - 09:50:06 10° SSW 10:00:08 66° SE 10:10:10 10° NE daylight
21 Feb - 11:56:49 10° WSW 12:04:57 28° NW 12:13:04 10° N daylight
21 Feb - 20:45:41 10° NNE 20:49:30 13° NE 20:53:17 10° ENE night (unlit)
21 Feb - 22:45:01 10° NW 22:54:16 79° NE 23:03:36 10° SE visible
22 Feb - 00:52:48 10° W 00:59:24 21° SW 01:06:09 10° S visible
22 Feb - 07:27:39 10° SSE 07:31:04 12° SE 07:34:29 10° ESE daylight
22 Feb - 09:27:14 10° SSW 09:37:11 61° SE 09:47:09 10° NE daylight
22 Feb - 11:33:34 10° WSW 11:42:01 30° NW 11:50:27 10° N daylight
22 Feb - 20:23:57 10° NNE 20:26:32 11° NE 20:29:07 10° ENE night (unlit)
22 Feb - 22:22:10 10° NNW 22:31:23 73° NE 22:40:40 10° SE visible
23 Feb - 00:29:28 10° W 00:36:25 24° SW 00:43:31 10° S visible
23 Feb - 07:06:02 10° SSE 07:07:58 11° SE 07:09:55 10° SE daylight
23 Feb - 09:04:23 10° SSW 09:14:13 56° SE 09:24:05 10° NE daylight
23 Feb - 11:10:20 10° WSW 11:19:03 33° NW 11:27:48 10° N daylight
23 Feb - 21:59:20 10° NNW 22:08:30 67° NE 22:17:42 10° SE night (unlit)
24 Feb - 00:06:11 10° W 00:13:27 26° SW 00:20:52 10° S visible
24 Feb - 08:41:34 10° SSW 08:51:16 52° SE 09:01:02 10° ENE daylight
24 Feb - 10:47:09 10° WSW 10:56:07 36° NW 11:05:06 10° NNE daylight
24 Feb - 21:36:31 10° NNW 21:45:38 61° NE 21:54:44 10° SE night (unlit)
24 Feb - 23:42:57 10° W 23:50:30 28° SW 23:58:11 10° S visible
25 Feb - 08:18:45 10° SSW 08:28:18 48° SE 08:37:55 10° ENE daylight
25 Feb - 10:24:00 10° WSW 10:33:10 40° NW 10:42:24 10° NNE daylight
25 Feb - 21:13:44 10° NNW 21:22:45 56° NE 21:31:44 10° SE night (unlit)
25 Feb - 23:19:44 10° WNW 23:27:33 31° SW 23:35:28 10° SSE visible
26 Feb - 07:55:58 10° SSW 08:05:20 44° SE 08:14:48 10° ENE daylight
26 Feb - 10:00:53 10° WSW 10:10:13 43° NW 10:19:38 10° NNE daylight
26 Feb - 20:50:56 10° NNW 20:59:52 51° NE 21:08:43 10° SE night (unlit)
26 Feb - 22:56:34 10° WNW 23:04:37 33° SW 23:12:46 10° SSE visible
27 Feb - 07:33:11 10° SSW 07:42:22 40° SE 07:51:39 10° ENE daylight
27 Feb - 09:37:47 10° WSW 09:47:17 47° NW 09:56:52 10° NNE daylight
27 Feb - 20:28:10 10° NNW 20:36:58 47° NE 20:45:42 10° ESE night (unlit)
27 Feb - 22:33:24 10° WNW 22:41:41 36° SW 22:50:01 10° SSE visible
28 Feb - 07:10:26 10° SSW 07:19:24 37° SE 07:28:28 10° ENE daylight
28 Feb - 09:14:43 10° SW 09:24:21 51° NW 09:34:05 10° NNE daylight
28 Feb - 20:05:26 10° NNW 20:14:05 43° NE 20:22:39 10° ESE night (unlit)
28 Feb - 22:10:18 10° WNW 22:18:45 40° SW 22:27:17 10° SSE night (unlit)
